Weather History for KK22 - December, 2012

Change the Weather History Date:

Tuesday, December 4, 2012

  Actual Average (KJKL) Record (KJKL)
Temperature  
Mean Temperature 60 °F 41 °F  
Max Temperature 70 °F 49 °F 77 °F (1982)
Min Temperature 47 °F 33 °F 14 °F (1991)
Degree Days  
Heating Degree Days 6 24  
Month to date heating degree days 93  
Since 1 July heating degree days 893  
Cooling Degree Days 0 0  
Month to date cooling degree days 0  
Year to date cooling degree days 1154  
Growing Degree Days 10 (Base 50)    
Moisture  
Dew Point 50 °F    
Average Humidity 64    
Maximum Humidity 96    
Minimum Humidity 52    
Precipitation  
Precipitation 0.00 in 0.14 in 1.84 in (1993)
Month to date precipitation 0.56  
Year to date precipitation 44.72  
Snow  
Snow - 0.10 in - ()
Month to date snowfall 0.3  
Since 1 July snowfall 0.9  
Snow Depth -    
Sea Level Pressure  
Sea Level Pressure 30.16 in    
Wind  
Wind Speed 7 mph ()    
Max Wind Speed 18 mph    
Max Gust Speed 24 mph    
Visibility 9.8 miles    
Events Rain    
T = Trace of Precipitation, MM = Missing Value Source: Averaged Metar Reports

Daily Weather History Graph

Daily Weather History Graph

Search for Another Location

Airport or City:

Trip Planner

Search our weather history database for the weather conditions in past years. The results will help you decide how hot, cold, wet, or windy it might be!

Date:

Astronomy

Dec. 04, 2012 Rise Set
Actual Time 7:30 AM EST 5:11 PM EST
Civil Twilight 7:01 AM EST 5:40 PM EST
Nautical Twilight 6:28 AM EST 6:13 PM EST
Astronomical Twilight 5:56 AM EST 6:44 PM EST
Moon 10:53 PM EST (12/4) 11:27 AM EST (12/4)
Length of Visible Light 10h 39m
Length of Day
9h 41m
Waning Gibbous, 69% of the Moon is Illuminated
Dec 4
Waning Gibbous
Dec 6
Last Quarter
Dec 13
New
Dec 20
First Quarter
Dec 28
Full

Hourly Weather History & Observations

Time (EST) Temp. Dew Point Humidity Pressure Visibility Wind Dir Wind Speed Gust Speed Precip Events Conditions
12:15 AM 62.1 °F 48.7 °F 62% 30.21 in 10.0 mi SSW 6.9 mph - N/A   Clear
12:35 AM 61.5 °F 48.6 °F 62% 30.21 in 10.0 mi South 6.9 mph - N/A   Clear
1:15 AM 59.0 °F 48.4 °F 68% 30.20 in 10.0 mi South 6.9 mph - N/A   Clear
1:35 AM 59.0 °F 48.4 °F 68% 30.20 in 10.0 mi South 8.1 mph - N/A   Clear
1:55 AM 59.9 °F 48.4 °F 66% 30.20 in 10.0 mi South 6.9 mph - N/A   Clear
2:15 AM 57.9 °F 48.2 °F 70% 30.21 in 10.0 mi South 4.6 mph - N/A   Clear
2:35 AM 57.4 °F 47.8 °F 70% 30.21 in 10.0 mi South 6.9 mph - N/A   Clear
2:55 AM 57.6 °F 47.8 °F 70% 30.20 in 10.0 mi South 8.1 mph - N/A   Clear
3:15 AM 58.1 °F 48.0 °F 69% 30.20 in 10.0 mi South 8.1 mph - N/A   Clear
3:55 AM 57.2 °F 47.8 °F 71% 30.19 in 10.0 mi South 6.9 mph - N/A   Scattered Clouds
4:15 AM 58.3 °F 48.2 °F 69% 30.19 in 10.0 mi South 5.8 mph - N/A   Mostly Cloudy
4:35 AM 58.1 °F 48.0 °F 69% 30.19 in 10.0 mi South 5.8 mph - N/A   Mostly Cloudy
4:55 AM 57.2 °F 47.7 °F 70% 30.19 in 10.0 mi South 5.8 mph - N/A   Scattered Clouds
5:15 AM 56.8 °F 47.7 °F 71% 30.19 in 10.0 mi South 6.9 mph - N/A   Clear
5:35 AM 57.2 °F 47.7 °F 70% 30.19 in 10.0 mi South 8.1 mph - N/A   Clear
5:55 AM 57.2 °F 47.7 °F 70% 30.19 in 10.0 mi South 8.1 mph - N/A   Scattered Clouds
6:15 AM 57.7 °F 47.8 °F 70% 30.19 in 10.0 mi South 5.8 mph - N/A   Scattered Clouds
6:35 AM 57.2 °F 48.0 °F 71% 30.19 in 10.0 mi South 6.9 mph - N/A   Scattered Clouds
6:55 AM 57.2 °F 48.2 °F 72% 30.19 in 10.0 mi South 5.8 mph - N/A   Mostly Cloudy
7:15 AM 57.7 °F 48.2 °F 70% 30.19 in 10.0 mi South 6.9 mph - N/A   Mostly Cloudy
7:35 AM 57.4 °F 48.4 °F 72% 30.19 in 10.0 mi South 4.6 mph - N/A   Scattered Clouds
7:55 AM 58.3 °F 48.7 °F 71% 30.20 in 10.0 mi SSW 8.1 mph - N/A   Mostly Cloudy
8:15 AM 59.4 °F 49.3 °F 69% 30.20 in 10.0 mi South 6.9 mph - N/A   Overcast
8:35 AM 60.1 °F 49.3 °F 67% 30.20 in 10.0 mi SSW 4.6 mph - N/A   Overcast
8:55 AM 61.7 °F 49.8 °F 65% 30.20 in 10.0 mi South 8.1 mph - N/A   Mostly Cloudy
9:15 AM 61.7 °F 50.0 °F 65% 30.20 in 10.0 mi SSW 8.1 mph - N/A   Mostly Cloudy
9:35 AM 63.9 °F 50.2 °F 61% 30.21 in 10.0 mi South 8.1 mph - N/A   Overcast
9:55 AM 65.7 °F 50.5 °F 58% 30.21 in 10.0 mi SSW 9.2 mph - N/A   Overcast
10:15 AM 65.8 °F 50.5 °F 58% 30.21 in 10.0 mi SW 11.5 mph - N/A   Mostly Cloudy
10:35 AM 66.6 °F 51.1 °F 57% 30.21 in 10.0 mi SW 9.2 mph 16.1 mph N/A   Mostly Cloudy
10:55 AM 64.9 °F 50.9 °F 60% 30.20 in 10.0 mi SW 10.4 mph - N/A   Overcast
11:15 AM 65.7 °F 51.1 °F 59% 30.19 in 10.0 mi SW 9.2 mph - N/A   Overcast
11:35 AM 65.3 °F 51.3 °F 60% 30.19 in 10.0 mi SW 8.1 mph - N/A   Overcast
11:55 AM 65.5 °F 51.8 °F 61% 30.17 in 10.0 mi SW 9.2 mph 17.3 mph N/A   Overcast
12:15 PM 65.7 °F 51.8 °F 61% 30.17 in 10.0 mi WSW 5.8 mph - N/A   Overcast
12:35 PM 66.6 °F 52.0 °F 59% 30.15 in 10.0 mi SSW 8.1 mph - N/A   Overcast
12:55 PM 67.5 °F 52.0 °F 58% 30.14 in 10.0 mi SW 6.9 mph - N/A   Overcast
1:15 PM 68.4 °F 52.2 °F 56% 30.13 in 10.0 mi WSW 3.5 mph - N/A   Overcast
1:35 PM 70.0 °F 52.5 °F 54% 30.13 in 10.0 mi SSW 8.1 mph - N/A   Overcast
1:55 PM 68.9 °F 51.8 °F 54% 30.12 in 10.0 mi SW 9.2 mph 16.1 mph N/A   Overcast
2:15 PM 69.4 °F 51.8 °F 53% 30.12 in 10.0 mi WSW 9.2 mph 18.4 mph N/A   Overcast
2:35 PM 70.0 °F 51.8 °F 52% 30.11 in 10.0 mi SW 10.4 mph 18.4 mph N/A   Overcast
2:55 PM 69.4 °F 51.3 °F 52% 30.11 in 10.0 mi SSW 18.4 mph 23.0 mph N/A   Overcast
3:15 PM 68.5 °F 51.1 °F 54% 30.11 in 10.0 mi SW 10.4 mph 16.1 mph N/A   Overcast
3:35 PM 68.2 °F 50.9 °F 54% 30.11 in 10.0 mi WSW 9.2 mph - N/A   Overcast
3:55 PM 68.0 °F 50.9 °F 54% 30.11 in 10.0 mi SW 11.5 mph 19.6 mph N/A   Overcast
4:15 PM 67.6 °F 50.9 °F 55% 30.11 in 10.0 mi SW 8.1 mph 21.9 mph N/A   Overcast
4:35 PM 67.3 °F 50.9 °F 56% 30.10 in 10.0 mi South 10.4 mph 20.7 mph N/A   Overcast
5:15 PM 67.1 °F 50.5 °F 55% 30.11 in 10.0 mi SSW 8.1 mph - N/A   Overcast
5:35 PM 66.9 °F 50.0 °F 54% 30.11 in 10.0 mi SSW 12.7 mph 18.4 mph N/A   Overcast
5:55 PM 66.7 °F 49.6 °F 54% 30.11 in 10.0 mi SSW 9.2 mph - N/A   Overcast
6:15 PM 66.6 °F 49.6 °F 54% 30.11 in 10.0 mi SW 9.2 mph - N/A   Overcast
6:35 PM 66.6 °F 49.5 °F 54% 30.12 in 10.0 mi SW 8.1 mph - N/A   Overcast
6:55 PM 66.2 °F 49.3 °F 54% 30.12 in 10.0 mi SW 12.7 mph 18.4 mph N/A   Overcast
7:15 PM 66.2 °F 49.3 °F 54% 30.12 in 10.0 mi SW 10.4 mph - N/A   Overcast
7:35 PM 66.2 °F 49.3 °F 54% 30.12 in 10.0 mi WSW 11.5 mph 16.1 mph N/A   Overcast
7:55 PM 66.4 °F 49.5 °F 54% 30.12 in 10.0 mi SW 11.5 mph 21.9 mph N/A   Overcast
8:15 PM 65.8 °F 50.0 °F 57% 30.12 in 10.0 mi SW 10.4 mph 24.2 mph N/A   Overcast
8:35 PM 65.7 °F 50.2 °F 57% 30.12 in 10.0 mi WSW 11.5 mph 21.9 mph N/A   Overcast
8:55 PM 65.3 °F 50.4 °F 58% 30.12 in 10.0 mi WSW 10.4 mph 18.4 mph N/A   Overcast
9:15 PM 65.3 °F 50.2 °F 58% 30.11 in 10.0 mi WSW 13.8 mph 21.9 mph N/A   Overcast
9:35 PM 65.3 °F 50.2 °F 58% 30.12 in 10.0 mi West 6.9 mph - N/A   Overcast
9:55 PM 61.2 °F 53.1 °F 75% 30.14 in 7.0 mi WNW 4.6 mph 17.3 mph N/A Rain Rain
10:15 PM 59.4 °F 53.8 °F 82% 30.13 in 10.0 mi Calm Calm - N/A   Overcast
10:35 PM 59.2 °F 54.1 °F 83% 30.13 in 10.0 mi North 3.5 mph - N/A Rain Rain
10:55 PM 58.6 °F 54.7 °F 87% 30.14 in 10.0 mi North 8.1 mph - N/A Rain Rain
11:15 PM 57.9 °F 55.4 °F 91% 30.16 in 7.0 mi North 9.2 mph - N/A   Heavy Drizzle
11:35 PM 49.3 °F 47.3 °F 93% 30.18 in 7.0 mi North 12.7 mph 24.2 mph N/A Rain Rain
11:55 PM 47.5 °F 46.4 °F 96% 30.20 in 7.0 mi North 6.9 mph 18.4 mph N/A Rain Heavy Rain